Back to catalog

COSMOS 2251 DEB

AliveLEO
NORAD 34325·DEBRIS·🇷🇺 Russia

Launched Jun 16, 1993 from Plesetsk Cosmodrome

Loading…

Next Passes (next 24 hours)

TLE

FreshSource: Space-Track

Epoch: Sep 14, 2026, 10:46 UTC

1 34325U 93036NX  26257.44921892  .00001250  00000-0  66347-3 0  9996
2 34325  73.8687  66.4297 0191082  32.0813 350.2127 14.05680862893886

Track COSMOS 2251 DEB in real time with AllMySat

Download on the App Store